Regional Weather Roundup
Issued by NWS

Home | Current Version | Previous Version | Text Only | Print | Product List | Glossary Off
Versions: 1 2 3 4 5 6 7 8 9 10 11 12 13 14 15 16 17 18 19 20 21 22 23 24 25 26 27 28 29 30 31 32 33 34 35 36 37 38 39 40 41 42 43 44 45 46 47 48 49 50

000
ASUS43 KFSD 270802
RWRSD

WEATHER ROUNDUP FOR SOUTH DAKOTA
NATIONAL WEATHER SERVICE SIOUX FALLS SD
300 AM CDT SAT MAY 27 2017

NOTE: "FAIR" INDICATES FEW OR NO CLOUDS BELOW 12,000 FEET WITH NO
SIGNIFICANT WEATHER AND/OR OBSTRUCTIONS TO VISIBILITY.


SDZ001>005-009-010-012>017-270900-
NORTHWEST AND NORTH CENTRAL SOUTH DAKOTA

CITY           SKY/WX    TMP DP  RH WIND       PRES   REMARKS
BUFFALO          N/A     44  37  76 W12       29.88S
FAITH            N/A     53  44  71 SW10      29.92F
MOBRIDGE       CLOUDY    54  42  64 SE3       29.87S
$$

SDZ012>016-024>037-041>051-057-063-072>074-270900-
SOUTHWEST AND SOUTH CENTRAL SOUTH DAKOTA

CITY           SKY/WX    TMP DP  RH WIND       PRES   REMARKS
RAPID CTY ARPT CLOUDY    50  48  93 SW6       29.97F
PIERRE         CLOUDY    60  43  53 W8        29.90F
CUSTER         CLOUDY    43  40  89 NW5       30.02R
ELLSWORTH AFB  CLOUDY    50  50 100 SW7       29.97
PHILIP         CLOUDY    53  51  93 NW8       29.93F
PINE RIDGE     CLOUDY    50  49  96 NW5       29.98R
WINNER         LGT RAIN  56  49  77 SW12      29.95R
$$

SDZ004>011-016>023-039-040-270900-
NORTHEAST SOUTH DAKOTA

CITY           SKY/WX    TMP DP  RH WIND       PRES   REMARKS
ABERDEEN       CLOUDY    49  41  74 CALM      29.88R
WATERTOWN      CLOUDY    49  44  83 S3        29.89S
BROOKINGS      CLOUDY    54  47  77 CALM      29.91S
SISSETON         N/A     52  47  83 SW6       29.86S
$$

SDZ017-020-022-023-036>040-048>070-270900-
SOUTHEAST SOUTH DAKOTA

CITY           SKY/WX    TMP DP  RH WIND       PRES   REMARKS
SIOUX FALLS    CLOUDY    49  44  83 CALM      29.90S
HURON          CLOUDY    55  51  86 S3        29.90R
CHAMBERLAIN    CLOUDY    61  46  56 NW3       29.91F
MITCHELL       CLOUDY    58  47  66 CALM      29.90S
YANKTON        CLOUDY    57  48  72 CALM      29.90F
$$

ABBREVIATIONS USED IN REMARKS
   TC - TEMPERATURE IN CELSIUS
  WCI - WIND CHILL INDEX
   HX - HEAT INDEX
  VSB - VISIBILITY





USA.gov is the U.S. government's official web portal to all federal, state and local government web resources and services.